Location: Ch�teau-Arnoux
(44.0814°N, 6.0027°E)
Time: 16:40:28
(UTC+00:00)

Cosmos 1725 Rocket - Pass Details

Date: 15 November 2019
Orbit: 962 x 990 km, 82.9° (Epoch: 09 December)

Event Time Altitude Azimuth Distance (km) Brightness Sun altitude
Rises 05:10:52 0° 179° (S) 3,657 7.2 -14.4°
Reaches altitude 10° 05:13:21 10° 177° (S) 2,717 6.5 -13.9°
Maximum altitude 05:19:33 72° 95° (E) 1,031 4.3 -12.9°
Drops below altitude 10° 05:25:50 10° 12° (NNE) 2,754 6.3 -11.8°
Sets 05:28:23 0° 10° (N) 3,709 7.0 -11.3°
